Location: Ash Shall?l al Awwal
(24.0167°N, 32.8667°E)
Time: 11:33:01
(UTC+00:00)

Cosmos 1707 Rocket - Pass Details

Date: 02 March 2021
Orbit: 604 x 632 km, 82.5° (Epoch: 15 April)

Event Time Altitude Azimuth Distance (km) Brightness Sun altitude
Rises 16:09:13 0° 3° (N) 2,879 6.9 -4.8°
Reaches altitude 10° 16:11:32 10° 9° (N) 1,967 6.0 -5.3°
Maximum altitude 16:15:42 46° 83° (E) 821 3.8 -6.3°
Drops below altitude 10° 16:19:50 10° 157° (SSE) 1,946 5.9 -7.2°
Sets 16:22:06 0° 163° (SSE) 2,844 6.8 -7.7°
